AWW73LT EGFF-EGAC

Flight info

Callsign AWW73LT
Flight time 0h 58m
Altitude 24000
Route BCN P69 DIZIM N864 WAL M146 ERDUV Z198 MASOP M148 MAGEE
Aircraft A320/M-SDE3FGHIRWY/LB1

Departure

Time 2026-04-28 11:38
Airport Cardiff International Airport (EGFF)

Arrival

Time 2026-04-28 12:36
Airport George Best Belfast City Airport (EGAC)
Time Latitude Longitude Altitude Speed Heading
2026-04-28 11:17 51.39744 -3.33818 222 ft 0 kts 26°
2026-04-28 11:19 51.39744 -3.33819 222 ft 0 kts 26°
2026-04-28 11:26 51.39743 -3.33819 221 ft 0 kts 26°
2026-04-28 11:31 51.39734 -3.33826 223 ft 4 kts 25°
2026-04-28 11:31 51.39712 -3.33844 226 ft 1 kts 31°
2026-04-28 11:32 51.39713 -3.33854 225 ft 4 kts 251°
2026-04-28 11:32 51.39712 -3.33896 221 ft 4 kts 277°
2026-04-28 11:32 51.39719 -3.33925 222 ft 1 kts 296°
2026-04-28 11:32 51.39718 -3.33925 222 ft 3 kts 296°
2026-04-28 11:34 51.39728 -3.33955 224 ft 14 kts 296°
2026-04-28 11:34 51.39781 -3.34125 221 ft 17 kts 296°
2026-04-28 11:35 51.39831 -3.34285 223 ft 15 kts 296°
2026-04-28 11:35 51.39888 -3.34463 226 ft 19 kts 297°
2026-04-28 11:35 51.39947 -3.34652 222 ft 20 kts 296°
2026-04-28 11:35 51.40010 -3.34855 222 ft 20 kts 296°
2026-04-28 11:36 51.40074 -3.35060 221 ft 20 kts 296°
2026-04-28 11:36 51.40134 -3.35247 220 ft 18 kts 297°
2026-04-28 11:36 51.40144 -3.35429 219 ft 17 kts 243°
2026-04-28 11:36 51.40055 -3.35530 219 ft 15 kts 181°
2026-04-28 11:37 51.40000 -3.35405 218 ft 16 kts 117°
2026-04-28 11:37 51.39877 -3.35012 220 ft 74 kts 117°
2026-04-28 11:37 51.39550 -3.33970 220 ft 134 kts 116°
2026-04-28 11:37 51.39093 -3.32548 695 ft 143 kts 110°
2026-04-28 11:38 51.38657 -3.31130 1443 ft 142 kts 108°
2026-04-28 11:38 51.38206 -3.29616 1850 ft 162 kts 108°
2026-04-28 11:38 51.37691 -3.27875 2195 ft 184 kts 110°
2026-04-28 11:38 51.37101 -3.25899 2540 ft 209 kts 110°
2026-04-28 11:39 51.36441 -3.23713 3016 ft 232 kts 111°
2026-04-28 11:39 51.35716 -3.21336 3832 ft 241 kts 112°
2026-04-28 11:39 51.35243 -3.18786 4787 ft 240 kts 90°
2026-04-28 11:39 51.35552 -3.16180 5705 ft 242 kts 64°
2026-04-28 11:40 51.36425 -3.13854 6640 ft 246 kts 58°
2026-04-28 11:40 51.37607 -3.11862 7479 ft 255 kts 32°
2026-04-28 11:40 51.39355 -3.11223 8347 ft 269 kts 359°
2026-04-28 11:40 51.41214 -3.11807 9302 ft 274 kts 352°
2026-04-28 11:41 51.43067 -3.12583 10229 ft 277 kts 351°
2026-04-28 11:41 51.44964 -3.13452 10729 ft 295 kts 350°
2026-04-28 11:41 51.47000 -3.14420 11116 ft 313 kts 349°
2026-04-28 11:41 51.49104 -3.15436 11834 ft 318 kts 349°
2026-04-28 11:42 51.51233 -3.16460 12632 ft 321 kts 350°
2026-04-28 11:42 51.53389 -3.17477 13422 ft 324 kts 350°
2026-04-28 11:42 51.55557 -3.18484 14212 ft 326 kts 351°
2026-04-28 11:42 51.57747 -3.19494 14905 ft 328 kts 351°
2026-04-28 11:43 51.59951 -3.20507 15642 ft 331 kts 351°
2026-04-28 11:43 51.62182 -3.21528 16293 ft 335 kts 351°
2026-04-28 11:43 51.64433 -3.22558 16959 ft 338 kts 351°
2026-04-28 11:43 51.66701 -3.23597 17667 ft 340 kts 351°
2026-04-28 11:44 51.68987 -3.24648 18358 ft 343 kts 351°
2026-04-28 11:44 51.71301 -3.25599 18974 ft 342 kts 357°
2026-04-28 11:44 51.73649 -3.25885 19581 ft 336 kts
2026-04-28 11:44 51.75954 -3.25479 20213 ft 333 kts 14°
2026-04-28 11:45 51.78246 -3.24909 20838 ft 334 kts 14°
2026-04-28 11:45 51.80546 -3.24340 21475 ft 335 kts 14°
2026-04-28 11:45 51.82826 -3.23772 22100 ft 336 kts 15°
2026-04-28 11:45 51.85142 -3.23197 22735 ft 338 kts 15°
2026-04-28 11:46 51.87469 -3.22623 23371 ft 339 kts 15°
2026-04-28 11:46 51.89806 -3.22051 23979 ft 341 kts 15°
2026-04-28 11:46 51.92153 -3.21476 24305 ft 342 kts 15°
2026-04-28 11:46 51.94495 -3.20904 24372 ft 335 kts 15°
2026-04-28 11:47 51.96750 -3.20361 24390 ft 323 kts 15°
2026-04-28 11:47 51.98959 -3.19818 24387 ft 320 kts 15°
2026-04-28 11:47 52.01153 -3.19268 24349 ft 319 kts 15°
2026-04-28 11:47 52.03350 -3.18715 24365 ft 320 kts 15°
2026-04-28 11:48 52.05590 -3.18420 24375 ft 325 kts 10°
2026-04-28 11:48 52.07847 -3.18249 24375 ft 325 kts 10°
2026-04-28 11:48 52.10106 -3.18077 24373 ft 325 kts 10°
2026-04-28 11:48 52.12365 -3.17903 24376 ft 325 kts 10°
2026-04-28 11:49 52.14623 -3.17727 24378 ft 325 kts 10°
2026-04-28 11:49 52.16880 -3.17550 24378 ft 325 kts 10°
2026-04-28 11:49 52.19138 -3.17376 24371 ft 325 kts 10°
2026-04-28 11:49 52.21395 -3.17201 24376 ft 325 kts 10°
2026-04-28 11:50 52.23651 -3.17028 24376 ft 325 kts 10°
2026-04-28 11:50 52.25905 -3.16858 24341 ft 324 kts
2026-04-28 11:50 52.28162 -3.16689 24347 ft 325 kts
2026-04-28 11:50 52.30425 -3.16516 24346 ft 326 kts
2026-04-28 11:51 52.32690 -3.16340 24351 ft 326 kts
2026-04-28 11:51 52.34957 -3.16163 24359 ft 326 kts
2026-04-28 11:51 52.37222 -3.15986 24361 ft 326 kts 10°
2026-04-28 11:51 52.39488 -3.15808 24361 ft 326 kts
2026-04-28 11:52 52.41754 -3.15631 24369 ft 326 kts
2026-04-28 11:52 52.44023 -3.15455 24372 ft 327 kts
2026-04-28 11:52 52.46293 -3.15278 24373 ft 327 kts
2026-04-28 11:52 52.48562 -3.15101 24336 ft 327 kts
2026-04-28 11:53 52.50844 -3.14920 24363 ft 330 kts
2026-04-28 11:53 52.53142 -3.14739 24373 ft 331 kts
2026-04-28 11:53 52.55443 -3.14559 24375 ft 331 kts
2026-04-28 11:53 52.57744 -3.14379 24382 ft 331 kts
2026-04-28 11:54 52.60043 -3.14200 24384 ft 331 kts
2026-04-28 11:54 52.62340 -3.14023 24385 ft 331 kts
2026-04-28 11:54 52.64637 -3.13842 24392 ft 330 kts
2026-04-28 11:54 52.66933 -3.13658 24393 ft 330 kts
2026-04-28 11:55 52.69231 -3.13476 24393 ft 330 kts
2026-04-28 11:55 52.71530 -3.13336 24393 ft 333 kts
2026-04-28 11:55 52.73858 -3.13742 24367 ft 339 kts 359°
2026-04-28 11:55 52.76163 -3.14288 24371 ft 339 kts 359°
2026-04-28 11:56 52.78532 -3.14849 24374 ft 340 kts 359°
2026-04-28 11:56 52.80875 -3.15406 24376 ft 340 kts 359°
2026-04-28 11:56 52.83219 -3.15965 24384 ft 340 kts 359°
2026-04-28 11:56 52.85562 -3.16524 24387 ft 341 kts 359°
2026-04-28 11:57 52.87910 -3.17083 24391 ft 341 kts 359°
2026-04-28 11:57 52.90251 -3.17339 24394 ft 334 kts
2026-04-28 11:57 52.92568 -3.17157 24401 ft 334 kts
2026-04-28 11:57 52.94884 -3.16971 24403 ft 333 kts
2026-04-28 11:58 52.97204 -3.16788 24374 ft 334 kts
2026-04-28 11:58 52.99537 -3.16602 24393 ft 337 kts
2026-04-28 11:58 53.01844 -3.16418 24400 ft 337 kts
2026-04-28 11:58 53.04189 -3.16233 24408 ft 338 kts
2026-04-28 11:59 53.06538 -3.16049 24413 ft 338 kts
2026-04-28 11:59 53.08915 -3.15859 24418 ft 338 kts
2026-04-28 11:59 53.11230 -3.15669 24422 ft 338 kts
2026-04-28 11:59 53.13576 -3.15474 24423 ft 337 kts
2026-04-28 12:00 53.15920 -3.15284 24418 ft 337 kts
2026-04-28 12:00 53.18266 -3.15098 24426 ft 337 kts
2026-04-28 12:00 53.20609 -3.14910 24427 ft 337 kts
2026-04-28 12:00 53.22950 -3.14721 24408 ft 337 kts
2026-04-28 12:01 53.25294 -3.14536 24412 ft 337 kts
2026-04-28 12:01 53.27642 -3.14355 24412 ft 338 kts
2026-04-28 12:01 53.29989 -3.14171 24409 ft 338 kts
2026-04-28 12:01 53.32337 -3.13985 24414 ft 338 kts
2026-04-28 12:02 53.34684 -3.13796 24417 ft 338 kts
2026-04-28 12:02 53.37053 -3.14025 24418 ft 346 kts 356°
2026-04-28 12:02 53.39383 -3.15240 24410 ft 357 kts 342°
2026-04-28 12:02 53.41520 -3.17478 24422 ft 370 kts 328°
2026-04-28 12:03 53.43380 -3.20530 24414 ft 376 kts 322°
2026-04-28 12:03 53.45202 -3.23671 24437 ft 376 kts 322°
2026-04-28 12:03 53.47033 -3.26810 24438 ft 376 kts 322°
2026-04-28 12:03 53.48866 -3.29944 24446 ft 376 kts 322°
2026-04-28 12:04 53.50703 -3.33082 24449 ft 377 kts 322°
2026-04-28 12:04 53.52540 -3.36218 24451 ft 377 kts 322°
2026-04-28 12:04 53.54376 -3.39361 24450 ft 377 kts 322°
2026-04-28 12:04 53.56208 -3.42510 24450 ft 377 kts 322°
2026-04-28 12:05 53.57997 -3.45754 24446 ft 382 kts 316°
2026-04-28 12:05 53.59568 -3.49396 24445 ft 385 kts 313°
2026-04-28 12:05 53.61113 -3.53069 24449 ft 385 kts 313°
2026-04-28 12:05 53.62658 -3.56746 24447 ft 385 kts 313°
2026-04-28 12:06 53.64206 -3.60426 24446 ft 385 kts 313°
2026-04-28 12:06 53.65752 -3.64103 24421 ft 385 kts 313°
2026-04-28 12:06 53.67296 -3.67782 24427 ft 384 kts 313°
2026-04-28 12:06 53.68836 -3.71466 24416 ft 384 kts 312°
2026-04-28 12:07 53.70374 -3.75158 24422 ft 384 kts 312°
2026-04-28 12:07 53.71911 -3.78850 24426 ft 385 kts 312°
2026-04-28 12:07 53.73448 -3.82545 24430 ft 385 kts 312°
2026-04-28 12:07 53.74984 -3.86248 24433 ft 385 kts 312°
2026-04-28 12:08 53.76521 -3.89952 24433 ft 385 kts 312°
2026-04-28 12:08 53.78057 -3.93653 24435 ft 385 kts 312°
2026-04-28 12:08 53.79593 -3.97364 24451 ft 385 kts 312°
2026-04-28 12:08 53.81126 -4.01077 24450 ft 385 kts 312°
2026-04-28 12:09 53.82658 -4.04798 24449 ft 385 kts 312°
2026-04-28 12:09 53.84169 -4.08472 24450 ft 385 kts 312°
2026-04-28 12:09 53.85744 -4.12212 24450 ft 382 kts 316°
2026-04-28 12:09 53.87534 -4.15377 24459 ft 373 kts 327°
2026-04-28 12:10 53.89617 -4.17903 24458 ft 364 kts 337°
2026-04-28 12:10 53.91884 -4.19712 24454 ft 357 kts 346°
2026-04-28 12:10 53.94203 -4.21220 24417 ft 357 kts 345°
2026-04-28 12:10 53.96521 -4.22737 24423 ft 358 kts 345°
2026-04-28 12:11 53.98842 -4.24267 24428 ft 358 kts 345°
2026-04-28 12:11 54.01165 -4.25813 24433 ft 358 kts 345°
2026-04-28 12:11 54.03484 -4.27363 24437 ft 359 kts 345°
2026-04-28 12:11 54.05807 -4.28915 24441 ft 359 kts 345°
2026-04-28 12:12 54.08129 -4.30461 24444 ft 358 kts 345°
2026-04-28 12:12 54.10455 -4.32003 24446 ft 358 kts 345°
2026-04-28 12:12 54.12770 -4.33573 24446 ft 360 kts 341°
2026-04-28 12:12 54.14955 -4.35746 24445 ft 368 kts 329°
2026-04-28 12:13 54.16867 -4.38726 24434 ft 377 kts 317°
2026-04-28 12:13 54.18447 -4.42349 24436 ft 382 kts 311°
2026-04-28 12:13 54.19967 -4.46070 24436 ft 382 kts 311°
2026-04-28 12:13 54.21489 -4.49794 24437 ft 382 kts 311°
2026-04-28 12:14 54.23016 -4.53523 24437 ft 383 kts 311°
2026-04-28 12:14 54.24544 -4.57247 24438 ft 383 kts 311°
2026-04-28 12:14 54.26073 -4.60982 24447 ft 383 kts 311°
2026-04-28 12:14 54.27597 -4.64718 24448 ft 383 kts 311°
2026-04-28 12:15 54.29121 -4.68460 24454 ft 383 kts 311°
2026-04-28 12:15 54.30642 -4.72201 24456 ft 383 kts 311°
2026-04-28 12:15 54.32164 -4.75951 24466 ft 385 kts 311°
2026-04-28 12:15 54.33194 -4.78480 24471 ft 397 kts 311°
2026-04-28 12:16 54.34780 -4.82379 24411 ft 397 kts 310°
2026-04-28 12:16 54.36341 -4.86240 24004 ft 392 kts 310°
2026-04-28 12:16 54.37883 -4.90074 23484 ft 389 kts 310°
2026-04-28 12:16 54.39411 -4.93883 22980 ft 386 kts 310°
2026-04-28 12:17 54.40928 -4.97672 22456 ft 384 kts 310°
2026-04-28 12:17 54.42433 -5.01435 21966 ft 381 kts 310°
2026-04-28 12:17 54.43927 -5.05168 21496 ft 378 kts 310°
2026-04-28 12:17 54.45416 -5.08875 21029 ft 376 kts 310°
2026-04-28 12:18 54.46900 -5.12550 20567 ft 373 kts 310°
2026-04-28 12:18 54.48379 -5.16194 20125 ft 371 kts 310°
2026-04-28 12:18 54.49855 -5.19812 19678 ft 368 kts 312°
2026-04-28 12:18 54.51542 -5.23022 19251 ft 357 kts 324°
2026-04-28 12:19 54.53467 -5.25664 18817 ft 353 kts 328°
2026-04-28 12:19 54.55393 -5.28268 18334 ft 351 kts 327°
2026-04-28 12:19 54.57303 -5.30870 17861 ft 349 kts 327°
2026-04-28 12:19 54.59201 -5.33461 17403 ft 347 kts 327°
2026-04-28 12:20 54.61089 -5.36039 16959 ft 345 kts 327°
2026-04-28 12:20 54.62965 -5.38604 16525 ft 343 kts 327°
2026-04-28 12:20 54.64830 -5.41157 16074 ft 341 kts 327°
2026-04-28 12:20 54.66689 -5.43697 15657 ft 340 kts 327°
2026-04-28 12:21 54.68534 -5.46223 15248 ft 338 kts 327°
2026-04-28 12:21 54.70369 -5.48744 14846 ft 336 kts 327°
2026-04-28 12:21 54.72190 -5.51251 14450 ft 334 kts 327°
2026-04-28 12:21 54.73981 -5.53795 14024 ft 334 kts 321°
2026-04-28 12:22 54.75310 -5.57128 13599 ft 343 kts 296°
2026-04-28 12:22 54.75731 -5.61208 13164 ft 350 kts 269°
2026-04-28 12:22 54.75117 -5.65209 12743 ft 352 kts 242°
2026-04-28 12:22 54.73588 -5.68455 12317 ft 348 kts 219°
2026-04-28 12:23 54.71713 -5.71096 11866 ft 347 kts 217°
2026-04-28 12:23 54.69847 -5.73641 11702 ft 336 kts 217°
2026-04-28 12:23 54.68034 -5.76080 11535 ft 326 kts 216°
2026-04-28 12:23 54.66252 -5.78463 11234 ft 322 kts 216°
2026-04-28 12:24 54.64493 -5.80821 10902 ft 319 kts 217°
2026-04-28 12:24 54.62751 -5.83167 10568 ft 316 kts 217°
2026-04-28 12:24 54.61023 -5.85505 10123 ft 315 kts 217°
2026-04-28 12:24 54.59309 -5.87828 9600 ft 312 kts 217°
2026-04-28 12:25 54.57611 -5.90126 9070 ft 309 kts 217°
2026-04-28 12:25 54.55929 -5.92396 8561 ft 305 kts 216°
2026-04-28 12:25 54.54279 -5.94621 8261 ft 298 kts 216°
2026-04-28 12:25 54.52654 -5.96812 8034 ft 296 kts 216°
2026-04-28 12:26 54.51035 -5.98991 7812 ft 295 kts 216°
2026-04-28 12:26 54.49421 -6.01161 7588 ft 294 kts 216°
2026-04-28 12:26 54.47825 -6.03307 7364 ft 287 kts 216°
2026-04-28 12:26 54.46278 -6.05386 7144 ft 279 kts 216°
2026-04-28 12:27 54.44772 -6.07408 6925 ft 271 kts 216°
2026-04-28 12:27 54.43308 -6.09371 6694 ft 263 kts 216°
2026-04-28 12:27 54.41886 -6.11280 6460 ft 256 kts 216°
2026-04-28 12:27 54.40508 -6.13144 6228 ft 249 kts 216°
2026-04-28 12:28 54.39163 -6.14972 6001 ft 244 kts 217°
2026-04-28 12:28 54.38133 -6.17212 5758 ft 240 kts 253°
2026-04-28 12:28 54.38117 -6.19947 5533 ft 233 kts 295°
2026-04-28 12:28 54.39092 -6.21981 5310 ft 217 kts 338°
2026-04-28 12:29 54.41640 -6.21169 4845 ft 189 kts 49°
2026-04-28 12:29 54.42306 -6.19287 4621 ft 184 kts 67°
2026-04-28 12:29 54.42814 -6.17286 4388 ft 182 kts 66°
2026-04-28 12:30 54.43327 -6.15306 4153 ft 181 kts 66°
2026-04-28 12:30 54.43842 -6.13333 3925 ft 181 kts 66°
2026-04-28 12:30 54.44355 -6.11363 3694 ft 181 kts 66°
2026-04-28 12:30 54.44867 -6.09401 3470 ft 179 kts 66°
2026-04-28 12:31 54.45386 -6.07441 3226 ft 181 kts 62°
2026-04-28 12:31 54.46206 -6.05819 3049 ft 182 kts 38°
2026-04-28 12:31 54.47250 -6.04585 3006 ft 183 kts 38°
2026-04-28 12:31 54.48287 -6.03355 3001 ft 181 kts 36°
2026-04-28 12:32 54.49333 -6.02114 2876 ft 183 kts 37°
2026-04-28 12:32 54.50373 -6.00879 2666 ft 181 kts 38°
2026-04-28 12:32 54.51403 -5.99657 2458 ft 177 kts 38°
2026-04-28 12:32 54.52388 -5.98488 2193 ft 166 kts 38°
2026-04-28 12:33 54.53302 -5.97402 1945 ft 154 kts 37°
2026-04-28 12:33 54.54153 -5.96390 1755 ft 143 kts 39°
2026-04-28 12:33 54.54959 -5.95429 1577 ft 139 kts 38°
2026-04-28 12:33 54.55749 -5.94489 1383 ft 139 kts 40°
2026-04-28 12:34 54.56545 -5.93539 1185 ft 137 kts 40°
2026-04-28 12:34 54.57325 -5.92595 978 ft 137 kts 40°
2026-04-28 12:34 54.58109 -5.91661 795 ft 138 kts 37°
2026-04-28 12:34 54.58891 -5.90766 590 ft 135 kts 38°
2026-04-28 12:35 54.59672 -5.89834 425 ft 136 kts 38°
2026-04-28 12:35 54.60459 -5.88891 228 ft 138 kts 39°
2026-04-28 12:35 54.61238 -5.87946 45 ft 137 kts 37°
2026-04-28 12:35 54.61936 -5.87096 20 ft 105 kts 35°
2026-04-28 12:36 54.62294 -5.86673 22 ft 26 kts 32°
2026-04-28 12:36 54.62331 -5.86633 23 ft 8 kts 33°
2026-04-28 12:36 54.62381 -5.86576 22 ft 16 kts 31°
2026-04-28 12:36 54.62482 -5.86508 21 ft 16 kts 60°
2026-04-28 12:37 54.62425 -5.86452 23 ft 13 kts 226°
2026-04-28 12:37 54.62369 -5.86583 22 ft 22 kts 219°
2026-04-28 12:37 54.62217 -5.86763 22 ft 28 kts 215°
2026-04-28 12:37 54.62054 -5.86959 20 ft 27 kts 214°
2026-04-28 12:38 54.61908 -5.87133 21 ft 21 kts 214°
2026-04-28 12:38 54.61818 -5.87135 20 ft 15 kts 131°
2026-04-28 12:38 54.61776 -5.87032 21 ft 10 kts 125°
2026-04-28 12:38 54.61710 -5.87009 21 ft 11 kts 210°
2026-04-28 12:39 54.61655 -5.87072 21 ft 7 kts 203°
2026-04-28 12:39 54.61611 -5.87058 21 ft 6 kts 163°
2026-04-28 12:39 54.61600 -5.87053 21 ft 0 kts 163°